[ hide orbit diagram ]
For accurate long-term ephemerides, please instead use our Horizons system.This orbit viewer was implemented using two-body methods, and hence should not be used for determining accurate long-term trajectories (over several years or decades) or planetary encounter circumstances.
Orbital Elements at Epoch 2459200.5 (2020-Dec-17.0) TDB
Reference: JPL 22 (heliocentric ecliptic J2000)
Element | Value | Uncertainty (1-sigma) | Units |
e | .189678893777193 | 4.5451e-08 | |
a | 2.179808082140625 | 8.4501e-09 | au |
q | 1.766344496473607 | 1.0123e-07 | au |
i | 2.196401312837859 | 4.3464e-06 | deg |
node | 344.8899509819335 | 0.00013355 | deg |
peri | 311.8233540640256 | 0.00013433 | deg |
M | 241.215185245941 | 1.2398e-05 | deg |
tp | 2459588.368257030352 (2022-Jan-08.86825703) | 4.0934e-05 | TDB |
period | 1175.508610423247 3.22 | 6.8354e-06 1.871e-08 | d yr |
n | .3062504151886903 | 1.7808e-09 | deg/d |
Q | 2.593271667807643 | 1.0053e-08 | au |
|
| | Orbit Determination Parameters
Additional Information
|
[ show covariance matrix ]
Physical Parameter Table
Parameter |
Symbol |
Value |
Units |
Sigma |
Reference |
Notes |
absolute magnitude |
H |
16.3 |
|
n/a |
MPO348133 |
|
diameter |
diameter |
3.681 |
km |
0.154 |
urn:nasa:pds:neowise_diameters_albedos::2.0[mainbelt] (http://adsabs.harvard.edu/abs/2011ApJ...741...68M) |
|
geometric albedo |
albedo |
0.039 |
|
0.005 |
urn:nasa:pds:neowise_diameters_albedos::2.0[mainbelt] (http://adsabs.harvard.edu/abs/2011ApJ...741...68M) |
|
|
101892 (1999 NV64) Discovered 1999-Jul-14 by LINEAR at Socorro |
Reference: 20051019/Numbers.arc | Last Updated: 2005-10-26 |
|
[ hide close-approach data ]
Close-Approach Data ...sorted by Date/Time (TDB)
|
Date/Time (TDB) |
Time Uncertainty (days_HH:MM) |
Body |
Nominal Distance (au) |
Minimum Distance (au) |
Maximum Distance (au) |
V-relative (km/s) |
V-infinity (km/s) |
JD (TDB) |
Time Uncertainty (minutes) |
Semi-major axis (km) |
Semi-minor axis (km) |
range-LOV angle (deg) |
N-sigma |
BP |
Orbit Ref. |
Reference |
Modified |
2136-Jul-18 05:40 |
< 00:01 |
Hebe |
0.0476862792271608 |
0.0476794210813034 |
0.0476931426739204 |
6.89185988254803 |
6.89185986363211 |
2501416.736038270 |
0.771980493153217 |
868.128915817803 |
39.2210110617252 |
66.9340180679783 |
167338.524239219 |
T |
22 |
CATAB v2.0f-lin.ifort 2021-Feb-24 19:33:15 |
2021-Feb-24 19:33 |
|
Alternate Designations
1999 NV64 = 1996 TQ15 = 1999 TA78 |
|
|